FENGYUN 3C

Last updated on Sun Oct 06 2024 00:02:17 GMT+0000 (Coordinated Universal Time)

1 39260U 13052A 24279.52053579 .00000762 00000+0 40470-3 0 9993 2 39260 98.4367 273.3202 0011382 14.9534 345.1975 14.16300508570889
UTC large
Height (km)
Speed (km/s)
/
Latitude / Longitude
Inclination (degrees)
Orbital Period (minutes)
Azimuth
Elevation
Range (km)
Doppler Factor

Next 0 passes for location: London (51.5072 / 0.1276)

Sorry there are no passes over London.